Simultaneous Nadir Overpasses (SNOs) Predictions

Prediction of SNOs between GOES-14 and NOAA-20 Satellite Orbit:

Table of predicted SNOs for the next 14.0 days since TLE Epoch: 7/8/2023
Index Date Time (GOES-14) GOES-14 Lat,Lon NOAA-20 Lat,Lon Distance(km) Time Diff (sec)
1 07/08/2023 08:56:33 -0.20,-108.66 0.77,-112.90 483.46 80
2 07/09/2023 08:40:28 -0.18,-108.66 -0.23,-108.37 32.95 80
3 07/11/2023 20:41:01 0.20,-108.57 0.07,-109.15 66.75 80
4 07/12/2023 20:24:57 0.19,-108.57 1.07,-104.62 449.98 80
5 07/14/2023 08:44:06 -0.23,-108.67 0.03,-109.91 141.58 80
6 07/15/2023 08:28:01 -0.21,-108.66 -0.92,-105.37 374.57 80
7 07/16/2023 20:47:18 0.25,-108.56 -0.24,-110.69 242.73 80
8 07/17/2023 20:31:13 0.24,-108.56 0.77,-106.16 273.96 80
9 07/19/2023 08:50:23 -0.28,-108.67 0.33,-111.45 316.49 80
10 07/20/2023 08:34:17 -0.26,-108.66 -0.63,-106.90 199.96 80
11 07/21/2023 20:53:35 0.30,-108.56 -0.52,-112.22 417.67 80
